Location: Glendale
(37.4556°N, 88.6714°W)
Time: 11:59:15
(UTC+00:00)

YAOGAN 1 - Pass Details

Date: 08 December 2019
Orbit: 619 x 621 km, 98.0° (Epoch: 23 January)

Event Time Altitude Azimuth Distance (km) Brightness Sun altitude
Rises 00:43:41 0° 176° (S) 2,881 6.1 -24.6°
Reaches altitude 10° 00:45:53 10° 180° (S) 1,979 5.2 -25.0°
Maximum altitude 00:50:07 58° 260° (W) 728 3.1 -25.8°
Drops below altitude 10° 00:54:24 10° 339° (NNW) 1,994 5.3 -26.7°
Sets 00:56:38 0° 344° (NNW) 2,905 6.1 -27.1°
